Volver al catálogo

INTELSAT 3R

PAS 3R

ActivoComunicacionesGEO
NORAD 23764·PAYLOAD·🇺🇸 United States

Lanzado Jan 12, 1996 desde Guiana Space Centre

Loading…

TLE

ActualizadoSource: Space-Track

Época: Sep 14, 2026, 12:16 UTC

1 23764U 96002A   26257.51126198  .00000014  00000-0  00000-0 0  9999
2 23764  11.9112  36.0590 0010385 268.7560 270.1981  0.99087683111677

Sigue INTELSAT 3R en tiempo real con AllMySat

Download on the App Store